Terminal Aerodrome Forecast
Issued by NWS

Home | Current Version | Previous Version | Text Only | Print | Product List | Glossary Off
Versions: 1 2 3 4 5 6 7 8 9 10 11 12 13 14 15 16

000
FTUS45 KGGW 161100 RRA
TAFSDY
TAF
KSDY 161145Z 1612/1712 00000KT P6SM OVC019
     FM161800 VRB06KT P6SM OVC012
      AMD LTD TO CLD VIS AND WIND=

USA.gov is the U.S. government's official web portal to all federal, state and local government web resources and services.